Regional Weather Roundup
Issued by NWS

Home | Current Version | Previous Version | Text Only | Print | Product List | Glossary Off
Versions: 1 2 3 4 5 6 7 8 9 10 11 12 13 14 15 16 17 18 19 20 21 22 23 24 25 26 27 28 29 30 31 32 33 34 35 36 37 38 39 40 41 42 43 44 45 46 47 48 49 50

000
ASUS43 KIND 300809
RWRIN

WEATHER ROUNDUP FOR INDIANA
NATIONAL WEATHER SERVICE INDIANAPOLIS IN
400 AM EDT SUN AUG 30 2015

NOTE: "FAIR" INDICATES FEW OR NO CLOUDS BELOW 12,000 FEET WITH NO
SIGNIFICANT WEATHER AND/OR OBSTRUCTIONS TO VISIBILITY.

* - STATION DOES NOT REPORT WEATHER SUCH AS PRECIPITATION OR FOG.

+ - STATION NOT QUALITY CONTROLLED BY THE NATIONAL WEATHER SERVICE.
    USE DATA WITH CAUTION...ESPECIALLY DEWPOINT AND RELATIVE
    HUMIDITY OBSERVATIONS.

INZ001>003-010>013-019-020-300900-
NORTHWEST INDIANA

CITY           SKY/WX    TMP DP  RH WIND       PRES   REMARKS
GARY /AIRPORT/ CLOUDY    66  64  91 N6        30.03S FOG
KNOX *+        CLOUDY    64  64 100 CALM      30.01S
LA PORTE +     FOG      N/A N/A N/A W3        30.02F VSB 1/2
MICHIGAN CITY+ CLOUDY    66  66 100 CALM      30.02S FOG
MONTICELLO +   PTCLDY    68  68 100 S3        30.01S
RENSSELAER +   MOCLDY    68  68 100 CALM      30.01F FOG
VALPARAISO     FOG       69  67  93 CALM      30.02F VSB 1

$$

LMZ046-743>745-300900-
SOUTHERN LAKE MICHIGAN

STATION/POSITION TIME  TEMP    WIND        PRES    WAVE
                       AIR SEA DIR/SP/G            HT
                 (UTC) (F)     (DEG/KT/KT) (MB)    (FT)
BURNS HARBOR     0700   67     360/  5/  7 1016.9F
MICHIGAN CITY    0700   67     300/  9/ 10   N/A
5NW MICH CITY    0800   68 71  340/  4/  6   N/A     1

$$

INZ004-005-014>016-021>024-300900-
NORTH CENTRAL INDIANA

CITY           SKY/WX    TMP DP  RH WIND       PRES   REMARKS
GOSHEN         MOCLDY    66  63  90 S5        30.02S
LOGANSPORT +   MOCLDY    63  61  94 S5        30.03S FOG
PERU/GRISSOM   PTCLDY    66  65  96 S5        30.02S
ROCHESTER +    PTCLDY    68  68 100 SE5       30.03S
SOUTH BEND     CLOUDY    67  66  97 CALM      30.02S FOG
WARSAW +       MOCLDY    63  63 100 CALM      30.03S FOG

$$

INZ006>009-017-018-025>027-300900-
NORTHEAST INDIANA

CITY           SKY/WX    TMP DP  RH WIND       PRES   REMARKS
ANGOLA *+      CLOUDY    66  57  72 S3        30.03S
AUBURN +       CLOUDY    68  64  88 CALM      30.05S FOG
FORT WAYNE     CLOUDY    67  66  97 CALM      30.04S FOG
HUNTINGTON +   MOCLDY    65  61  87 CALM      30.03S

$$

INZ028-029-035-036-043>045-051>053-300900-
WEST CENTRAL INDIANA

CITY           SKY/WX    TMP DP  RH WIND       PRES   REMARKS
CRAWFORDSVL +  FOG       59  59 100 CALM      30.03S VSB 3/4
GREENCASTLE +  PTCLDY    64  61  88 CALM      30.04S FOG
LAFAYETTE      FOG       65  64  97 CALM      30.02S VSB 1/2
TERRE HAUTE    PTCLDY    64  62  93 CALM      30.03S

$$

INZ030>032-037>040-046>048-054>057-064-065-300900-
CENTRAL INDIANA

CITY           SKY/WX    TMP DP  RH WIND       PRES   REMARKS
FRANKFORT +      N/A    N/A N/A N/A CALM      30.05S FOG
GREENWOOD *+   CLOUDY    70  66  88 CALM      30.05S
INDIANAPOLIS   MOCLDY    72  67  84 S7        30.02F
-EAGLE CREEK   PTCLDY    71  67  87 CALM      30.03S
KOKOMO *+      CLOUDY    66  63  88 SW6       30.04S
MARION +       PTCLDY    66  61  83 CALM      30.04S HAZE
MT COMFORT *+  MOCLDY    70 N/A N/A S5        30.05S
SHELBYVILLE    CLOUDY    71  67  87 SE5       30.04S
ZIONSVILLE +   PTCLDY    66  63  89 CALM      30.05S FOG

$$

INZ033-034-041-042-049-050-058-059-300900-
EAST CENTRAL INDIANA

CITY           SKY/WX    TMP DP  RH WIND       PRES   REMARKS
MUNCIE         MOCLDY    70  66  87 S6        30.04S

$$

INZ060-061-067>069-081>083-085>088-300900-
SOUTHWEST INDIANA

CITY           SKY/WX    TMP DP  RH WIND       PRES   REMARKS
EVANSVILLE     MOCLDY    72  69  90 S3        30.04S
HUNTINGBURG *+ MOCLDY    70  64  83 S3        30.05S
WASHINGTON +   MOCLDY    70  66  88 SE3       30.03S

$$

INZ062-063-066-070>080-084-089>092-300900-
SOUTH CENTRAL AND SOUTHEAST INDIANA

CITY           SKY/WX    TMP DP  RH WIND       PRES   REMARKS
BLOOMINGTON    CLOUDY    72  68  87 S6        30.04F
MADISON *+     PTCLDY    64  63  94 S3        30.09S
NORTH VERNON + PTCLDY    72  72 100 S3        30.07S
SEYMOUR +      MOCLDY    70  68  94 CALM      30.05S

$$




USA.gov is the U.S. government's official web portal to all federal, state and local government web resources and services.